Location: Boursonne
(49.2024°N, 3.0468°E)
Time: 20:13:57
(UTC+00:00)

Cosmos 1602 - Pass Details

Date: 03 March 2021
Orbit: 512 x 534 km, 82.5° (Epoch: 14 April)

Event Time Altitude Azimuth Distance (km) Brightness Sun altitude
Rises 18:39:36 0° 193° (SSW) 2,652 7.4 -11.5°
Reaches altitude 10° 18:41:44 10° 196° (SSW) 1,771 6.6 -11.8°
Maximum altitude 18:45:37 71° 281° (W) 567 4.0 -12.4°
Drops below altitude 10° 18:49:33 10° 6° (N) 1,797 6.4 -13.1°
Sets 18:51:44 0° 8° (N) 2,695 7.3 -13.4°
